Previsão horária em Alhos Vedros

Hoje, 26 Janeiro, Terça-feira

Tempo Temperatura Precipitação Vento Pressão Humidade
00:00 +15°C° 0.4 mm 4 m/s 764 mmHg 98%
01:00 +15°C° 0.4 mm 4 m/s 764 mmHg 98%
02:00 +15°C° 0.4 mm 4 m/s 764 mmHg 98%
03:00 +16°C° 0.1 mm 3 m/s 764 mmHg 98%
04:00 +16°C° 0.1 mm 3 m/s 764 mmHg 98%
05:00 +16°C° 0.1 mm 3 m/s 764 mmHg 98%
06:00 +16°C° 0 mm 3 m/s 764 mmHg 97%
07:00 +16°C° 0 mm 3 m/s 765 mmHg 96%
08:00 +17°C° 0 mm 4 m/s 765 mmHg 96%
09:00 +17°C° 0 mm 4 m/s 766 mmHg 95%
10:00 +17°C° 0 mm 4 m/s 766 mmHg 93%
11:00 +18°C° 0 mm 4 m/s 767 mmHg 92%
12:00 +18°C° 0.1 mm 4 m/s 766 mmHg 91%
13:00 +18°C° 0.1 mm 4 m/s 766 mmHg 90%
14:00 +18°C° 0.1 mm 3 m/s 765 mmHg 89%
15:00 +18°C° 0 mm 3 m/s 766 mmHg 91%
16:00 +17°C° 0 mm 3 m/s 766 mmHg 93%
17:00 +17°C° 0 mm 2 m/s 766 mmHg 94%
18:00 +16°C° 0 mm 2 m/s 767 mmHg 95%
19:00 +16°C° 0 mm 2 m/s 767 mmHg 96%
20:00 +16°C° 0 mm 2 m/s 767 mmHg 97%
21:00 +15°C° 0 mm 1 m/s 767 mmHg 97%
22:00 +15°C° 0 mm 1 m/s 768 mmHg 97%
23:00 +15°C° 0 mm 1 m/s 768 mmHg 97%

Amanhã, 27 Janeiro, Quarta-feira

Tempo Temperatura Precipitação Vento Pressão Humidade
00:00 +15°C° 0 mm 1 m/s 767 mmHg 97%
01:00 +15°C° 0 mm 1 m/s 767 mmHg 97%
02:00 +14°C° 0 mm 0 m/s 767 mmHg 96%
03:00 +14°C° 0 mm 0 m/s 767 mmHg 96%
04:00 +15°C° 0 mm 1 m/s 767 mmHg 96%
05:00 +15°C° 0 mm 1 m/s 767 mmHg 96%
06:00 +14°C° 0 mm 0 m/s 767 mmHg 94%
07:00 +14°C° 0 mm 0 m/s 767 mmHg 93%
08:00 +15°C° 0 mm 0 m/s 768 mmHg 92%
09:00 +15°C° 0 mm 0 m/s 768 mmHg 88%
10:00 +16°C° 0 mm 0 m/s 768 mmHg 85%
11:00 +17°C° 0 mm 0 m/s 768 mmHg 82%
12:00 +17°C° 0 mm 0 m/s 767 mmHg 80%
13:00 +20°C° 0 mm 1 m/s 767 mmHg 79%
14:00 +20°C° 0 mm 1 m/s 767 mmHg 78%
15:00 +19°C° 0 mm 1 m/s 767 mmHg 81%
16:00 +16°C° 0 mm 0 m/s 767 mmHg 85%
17:00 +15°C° 0 mm 0 m/s 767 mmHg 89%
18:00 +15°C° 0 mm 0 m/s 767 mmHg 90%
19:00 +14°C° 0 mm 0 m/s 767 mmHg 91%
20:00 +14°C° 0 mm 0 m/s 767 mmHg 92%
21:00 +14°C° 0 mm 0 m/s 767 mmHg 93%
22:00 +13°C° 0 mm 0 m/s 767 mmHg 93%
23:00 +13°C° 0 mm 0 m/s 767 mmHg 94%

Depois de amanhã, 28 Janeiro, Quinta-feira

Tempo Temperatura Precipitação Vento Pressão Humidade
00:00 +13°C° 0 mm 0 m/s 766 mmHg 94%
01:00 +13°C° 0 mm 0 m/s 766 mmHg 94%
02:00 +13°C° 0 mm 0 m/s 766 mmHg 95%
03:00 +14°C° 0 mm 1 m/s 766 mmHg 95%
04:00 +13°C° 0 mm 1 m/s 766 mmHg 95%
05:00 +13°C° 0 mm 1 m/s 765 mmHg 95%
06:00 +14°C° 0 mm 1 m/s 766 mmHg 94%
07:00 +14°C° 0 mm 1 m/s 766 mmHg 93%
08:00 +15°C° 0 mm 1 m/s 766 mmHg 92%
09:00 +16°C° 0 mm 1 m/s 766 mmHg 86%
10:00 +19°C° 0 mm 1 m/s 766 mmHg 79%
11:00 +20°C° 0 mm 1 m/s 766 mmHg 73%
12:00 +21°C° 0 mm 1 m/s 766 mmHg 70%
13:00 +22°C° 0 mm 1 m/s 765 mmHg 68%
14:00 +22°C° 0 mm 1 m/s 765 mmHg 66%
15:00 +21°C° 0 mm 1 m/s 765 mmHg 72%
16:00 +19°C° 0 mm 1 m/s 765 mmHg 78%
17:00 +18°C° 0 mm 1 m/s 765 mmHg 85%
18:00 +16°C° 0 mm 1 m/s 765 mmHg 85%
19:00 +16°C° 0 mm 1 m/s 765 mmHg 86%
20:00 +16°C° 0 mm 1 m/s 765 mmHg 86%
21:00 +15°C° 0 mm 1 m/s 765 mmHg 87%
22:00 +15°C° 0 mm 1 m/s 765 mmHg 88%
23:00 +14°C° 0 mm 1 m/s 765 mmHg 89%

29 Janeiro, Sexta-feira

Tempo Temperatura Precipitação Vento Pressão Humidade
00:00 +14°C° 0 mm 1 m/s 765 mmHg 90%
01:00 +14°C° 0 mm 1 m/s 764 mmHg 90%
02:00 +14°C° 0 mm 1 m/s 764 mmHg 90%
03:00 +13°C° 0 mm 1 m/s 764 mmHg 91%
04:00 +13°C° 0 mm 1 m/s 764 mmHg 91%
05:00 +12°C° 0 mm 0 m/s 763 mmHg 92%
06:00 +12°C° 0 mm 0 m/s 764 mmHg 91%
07:00 +14°C° 0 mm 1 m/s 764 mmHg 90%
08:00 +14°C° 0 mm 1 m/s 764 mmHg 90%
09:00 +16°C° 0 mm 1 m/s 764 mmHg 84%
10:00 +17°C° 0 mm 2 m/s 764 mmHg 78%
11:00 +19°C° 0 mm 2 m/s 764 mmHg 72%
12:00 +19°C° 0 mm 3 m/s 764 mmHg 72%
13:00 +19°C° 0 mm 3 m/s 763 mmHg 73%
14:00 +19°C° 0 mm 4 m/s 763 mmHg 73%
15:00 +18°C° 0 mm 4 m/s 762 mmHg 79%
16:00 +17°C° 0 mm 4 m/s 762 mmHg 85%
17:00 +14°C° 0 mm 4 m/s 762 mmHg 91%
18:00 +15°C° 0 mm 4 m/s 762 mmHg 92%
19:00 +15°C° 0 mm 5 m/s 763 mmHg 92%
20:00 +15°C° 0 mm 5 m/s 763 mmHg 93%
21:00 +15°C° 0 mm 5 m/s 763 mmHg 91%
22:00 +15°C° 0 mm 6 m/s 763 mmHg 89%
23:00 +15°C° 0 mm 6 m/s 763 mmHg 87%

30 Janeiro, Sábado

Tempo Temperatura Precipitação Vento Pressão Humidade
00:00 +15°C° 0 mm 6 m/s 763 mmHg 89%
01:00 +14°C° 0 mm 5 m/s 763 mmHg 91%
02:00 +14°C° 0 mm 5 m/s 763 mmHg 93%
03:00 +14°C° 0 mm 6 m/s 762 mmHg 92%
04:00 +13°C° 0 mm 6 m/s 762 mmHg 90%
05:00 +13°C° 0 mm 6 m/s 762 mmHg 88%
06:00 +13°C° 0 mm 6 m/s 763 mmHg 86%
07:00 +13°C° 0 mm 6 m/s 763 mmHg 83%
08:00 +13°C° 0 mm 6 m/s 764 mmHg 81%
09:00 +14°C° 0 mm 5 m/s 764 mmHg 76%
10:00 +15°C° 0 mm 5 m/s 765 mmHg 72%
11:00 +16°C° 0 mm 5 m/s 765 mmHg 68%
12:00 +16°C° 0 mm 5 m/s 765 mmHg 67%
13:00 +16°C° 0 mm 5 m/s 765 mmHg 66%
14:00 +16°C° 0 mm 5 m/s 765 mmHg 65%
15:00 +14°C° 0 mm 5 m/s 765 mmHg 71%
16:00 +13°C° 0 mm 4 m/s 765 mmHg 77%
17:00 +12°C° 0 mm 4 m/s 765 mmHg 83%
18:00 +12°C° 0 mm 3 m/s 765 mmHg 86%
19:00 +11°C° 0 mm 3 m/s 766 mmHg 88%
20:00 +12°C° 0 mm 2 m/s 766 mmHg 91%
21:00 +12°C° 0 mm 2 m/s 766 mmHg 91%
22:00 +12°C° 0 mm 2 m/s 766 mmHg 92%
23:00 +12°C° 0 mm 2 m/s 766 mmHg 92%

31 Janeiro, Domingo

Tempo Temperatura Precipitação Vento Pressão Humidade
00:00 +12°C° 0 mm 2 m/s 766 mmHg 92%
01:00 +12°C° 0 mm 2 m/s 765 mmHg 93%
02:00 +12°C° 0 mm 2 m/s 765 mmHg 93%
03:00 +12°C° 0 mm 2 m/s 765 mmHg 91%
04:00 +13°C° 0 mm 2 m/s 765 mmHg 90%
05:00 +13°C° 0 mm 2 m/s 765 mmHg 89%
06:00 +13°C° 0 mm 3 m/s 765 mmHg 90%
07:00 +13°C° 0 mm 3 m/s 765 mmHg 91%
08:00 +14°C° 0 mm 3 m/s 765 mmHg 92%
09:00 +16°C° 0 mm 3 m/s 765 mmHg 91%
10:00 +15°C° 0 mm 4 m/s 765 mmHg 90%
11:00 +17°C° 0 mm 4 m/s 765 mmHg 89%
12:00 +17°C° 0 mm 4 m/s 765 mmHg 86%
13:00 +18°C° 0 mm 4 m/s 765 mmHg 83%
14:00 +18°C° 0 mm 4 m/s 764 mmHg 80%
15:00 +17°C° 0 mm 4 m/s 764 mmHg 82%
16:00 +16°C° 0 mm 3 m/s 764 mmHg 85%
17:00 +16°C° 0 mm 3 m/s 764 mmHg 87%
18:00 +15°C° 0 mm 2 m/s 765 mmHg 90%
19:00 +15°C° 0 mm 2 m/s 765 mmHg 92%
20:00 +14°C° 0 mm 2 m/s 765 mmHg 94%
21:00 +14°C° 0 mm 2 m/s 765 mmHg 93%
22:00 +14°C° 0 mm 2 m/s 765 mmHg 92%
23:00 +14°C° 0 mm 2 m/s 765 mmHg 91%
Mostrar mais

Necessitamos do seu Consentimento

A Meteoprog e os seus Fornecedores de Serviços podem armazenar e aceder a dados pessoais como cookies, identificadores do dispositivo ou outras tecnologias semelhantes existentes no seu dispositivo e processar estes dados para personalizar conteúdos e anúncios, assim como funcionalidades nas redes sociais e análise de tráfego.

  • Armazenar e/ou aceder a informações no seu dispositivo

    Os cookies, identificadores do dispositivo ou outras informações podem ser armazenados ou acedidos no seu dispositivo, para os fins acima indicados.

  • Anúncios e conteúdos personalizados, medição de anúncios e conteúdos, dados sobre o público-alvo e desenvolvimento de produtos

    Os anúncios e os conteúdos podem ser personalizados com base num perfil. Podem ser adicionados dados adicionais para uma maior personalização dos anúncios e dos conteúdos. A eficácia dos anúncios e dos conteúdos pode ser medida. Podem ser obtidas informações sobre o público que visualizou os anúncios e os conteúdos. Estes dados podem ser usados para desenvolver ou melhorar sistemas, softwares ou a experiência do utilizador.

Ao clicar em "Eu concordo”, permitirá o uso de cookies, identificadores do dispositivo e web beacons mencionados ou outras tecnologias semelhantes. As configurações do navegador do seu dispositivo podem ser alteradas.

Para certos fins, podem ser invocados interesses legítimos ao invés de consentimento. Pode ler mais informação sobre este assunto na nossa Política de Privacidade e Cookies.